DELTA 1 DEB, 6214

Orbit data source: Space-Track

DELTA 1 DEB, 6214 is space debris in SSO originally from a launch on Mon, 28 Feb 1966 UTC launched from the Air Force Eastern Test Range (AFETR). Debris objects in space refer to the collection of defunct objects orbiting the Earth. Examples of debris include non-operational satellites, rocket bodies, and fragments generated from explosions, collisions, or faulty payload assembly.

Loading next visibility...
Identifier
6214, 1966-016E
Orbit
SSO
Country
Flag of USUS
Related business
Manufacturer
Unknown
Mission
Spacecraft
Bus & Motor
Unknown
Mass
Unknown
Launch date (UTC)
1966-02-28 (60 years ago)
Launch vehicle
Unknown
Launch site
Air Force Eastern Test Range (AFETR)
Object type
Payload
Rocket body
Debris
Shape & HBR
Unknown shape, 0.1 m
Radar Cross Section
Small (<0.1 m²)

Expand to show TLE details & history
Last TLE update: 14 hours ago

TLE from 14 hours ago
0 DELTA 1 DEB
1  6214U 66016E   26035.45021993  .00000077  00000-0  66011-3 0  9992
2  6214 101.7580  33.9346 0119192  62.9538  91.9992 12.62770029758163
Epoch: 2026-02-04T10:48Z
TLE epoch observation values (Epoch: 2026-02-04T10:48:19.001Z)
Latitude
23.17709°
Longitude
-77.67392°
Altitude
1,418.395 km
Speed
7.151 km/s
True Right ascension
14h 36m 05s
True Declination
23° 03' 48"
Sunlit
Object was in daylight at epoch
Visualization orbit readout
Latitude
Unknown
Longitude
Unknown
Altitude
Unknown
Speed
Unknown
Apparent Right ascension
Unknown
Apparent Declination
Unknown
Sunlit
N/A
Visualization observer readout
Local Sidereal Time
03:05:21
Azimuth
Unknown
Elevation
Unknown
Doppler factor
Unknown
Orbital elements
Apogee altitude
1,501.879 km
Perigee altitude
1,316.245 km
Semi-major axis
7,787.199 km
Eccentricity
0.01192
Inclination
101.758°
RAAN
33.9346°
Arg. of periapsis
62.9538°
True anomaly
93.36337°
Mean anomaly
91.9992°
Eccentric anomaly
92.68137°
Mean motion
3.15843 °/min
Orbital period
113.98 mins
BSTAR
0.00066011
Loading maneuver chart data...
Computing Atmospheric mass density...
Loading historical data...
Loading historical data...
Loading historical data...
Loading historical data...
Loading historical data...
Loading historical data...
Loading historical data...
Other satellites on launch #16 in the year 1966 (1966-02-28 UTC)

Documentation

Showing up to 5 results
|